Back to catalog

SL-8 R/B

AliveLEO
NORAD 21419·ROCKET BODY·🇷🇺 Russia

Launched Jun 11, 1991 from Plesetsk Cosmodrome

Loading…

Next Passes (next 24 hours)

TLE

FreshSource: Space-Track

Epoch: Sep 14, 2026, 15:43 UTC

1 21419U 91041B   26257.65516773  .00000015  00000-0  14298-4 0  9998
2 21419  74.0371 239.4998 0039031  61.3681 299.1388 14.35295813844227

Track SL-8 R/B in real time with AllMySat

Download on the App Store